Location: Washington
(38.8950°N, 77.0370°W)
Time: 21:31:49
(UTC-04:00)

ISS - All Passes

Search period start: 24 June 2016 00:00
Search period end: 04 July 2016 00:00
Orbit: 402 x 404 km, 51.6° (Epoch: 24 June)

Date Brightness Start Highest point End Pass type
(mag) Time Alt. Az. Time Alt. Az. Time Alt. Az.
24 Jun - 10:28:45 10° SSW 10:31:54 47° SE 10:35:03 10° ENE daylight
24 Jun - 12:05:52 10° W 12:08:30 22° NNW 12:11:08 10° NNE daylight
24 Jun - 15:22:17 10° N 15:23:35 12° NNE 15:24:53 10° NE daylight
24 Jun - 16:57:35 10° NW 17:00:44 41° NNE 17:03:50 10° ESE daylight
24 Jun - 18:34:33 10° W 18:36:58 19° SW 18:39:22 10° S daylight
25 Jun - 09:36:39 10° S 09:39:18 23° SE 09:41:57 10° ENE daylight
25 Jun - 11:12:34 10° W 11:15:37 35° NNW 11:18:39 10° NE daylight
25 Jun - 12:51:47 10° NNW 12:52:49 11° NNW 12:53:51 10° N daylight
25 Jun - 16:05:06 10° NNW 16:07:51 25° NNE 16:10:38 10° E daylight
25 Jun - 17:41:18 10° WNW 17:44:23 38° SW 17:47:26 10° SSE daylight
26 Jun - 08:45:33 10° SSE 08:46:46 12° SE 08:47:58 10° ESE daylight
26 Jun - 10:19:34 10° WSW 10:22:48 66° NW 10:26:03 10° NE daylight
26 Jun - 11:57:54 10° NW 11:59:45 14° NNW 12:01:37 10° NNE daylight
26 Jun - 15:12:39 10° NNW 15:14:54 17° NNE 15:17:09 10° ENE daylight
26 Jun - 16:48:26 10° NW 16:51:42 82° SW 16:54:58 10° SE daylight
27 Jun - 09:26:52 10° SW 09:30:04 60° SE 09:33:18 10° ENE daylight
27 Jun - 11:04:16 10° WNW 11:06:45 20° NNW 11:09:14 10° NNE daylight
27 Jun - 14:20:20 10° NNW 14:21:52 13° NNE 14:23:25 10° NE daylight
27 Jun - 15:55:44 10° NW 15:58:56 49° NE 16:02:07 10° ESE daylight
27 Jun - 17:33:03 10° W 17:35:05 16° SW 17:37:07 10° S daylight
28 Jun - 08:34:34 10° SSW 08:37:25 28° SE 08:40:16 10° ENE daylight
28 Jun - 10:10:52 10° W 10:13:49 30° NNW 10:16:45 10° NE daylight
28 Jun - 11:50:24 10° NNW 11:51:05 10° N 11:51:46 10° N daylight
28 Jun - 13:28:16 10° N 13:28:46 10° N 13:29:17 10° NNE daylight
28 Jun - 15:03:10 10° NNW 15:06:04 28° NNE 15:08:57 10° E daylight
28 Jun - 16:39:34 10° WNW 16:42:30 31° SW 16:45:25 10° SSE daylight
29 Jun - 07:42:59 10° SSE 07:44:50 14° SE 07:46:40 10° E daylight
29 Jun - 09:17:45 10° WSW 09:20:57 53° NW 09:24:09 10° NE daylight
29 Jun - 10:56:20 10° NW 10:57:58 13° NNW 10:59:37 10° NNE daylight
29 Jun - 14:10:41 10° NNW 14:13:07 19° NNE 14:15:31 10° ENE daylight
29 Jun - 15:46:34 10° WNW 15:49:50 66° SW 15:53:03 10° SE daylight
30 Jun - 08:24:55 10° SW 08:28:09 75° SE 08:31:25 10° NE daylight
30 Jun - 10:02:36 10° WNW 10:04:55 18° NNW 10:07:14 10° NNE daylight
30 Jun - 13:18:17 10° NNW 13:20:04 14° NNE 13:21:50 10° NE daylight
30 Jun - 14:53:48 10° NW 14:57:03 60° NE 15:00:16 10° ESE daylight
30 Jun - 16:31:36 10° W 16:33:07 13° SW 16:34:38 10° SSW daylight
01 Jul - 07:32:27 10° SSW 07:35:27 35° SE 07:38:28 10° ENE daylight
01 Jul - 09:09:07 10° W 09:11:56 26° NNW 09:14:45 10° NNE daylight
01 Jul - 12:26:03 10° N 12:26:57 11° NNE 12:27:51 10° NNE daylight
01 Jul - 14:01:10 10° NW 14:04:11 33° NNE 14:07:10 10° E daylight
01 Jul - 15:37:46 10° WNW 15:40:31 25° SW 15:43:16 10° S daylight
02 Jul - 06:40:34 10° S 06:42:49 17° SE 06:45:05 10° E daylight
02 Jul - 08:15:52 10° WSW 08:19:01 44° NW 08:22:10 10° NE daylight
02 Jul - 09:54:43 10° NW 09:56:06 12° NNW 09:57:31 10° N daylight
02 Jul - 13:08:39 10° NNW 13:11:13 21° NNE 13:13:47 10° ENE daylight
02 Jul - 14:44:39 10° WNW 14:47:50 52° SW 14:51:01 10° SE daylight
03 Jul - 07:22:55 10° SW 07:26:10 88° NW 07:29:27 10° NE daylight
03 Jul - 09:00:53 10° WNW 09:03:01 16° NNW 09:05:09 10° NNE daylight
03 Jul - 12:16:11 10° NNW 12:18:09 15° NNE 12:20:08 10° ENE daylight
03 Jul - 13:51:48 10° NW 13:55:03 74° NE 13:58:19 10° SE daylight
03 Jul - 15:30:34 10° WSW 15:31:03 10° SW 15:31:31 10° SW daylight
